Year,Month,Day,Hour,Minute,Value (Times are PST for temperature in C)
2012,08,23,00,00,11.70
2012,08,23,00,01,11.80
2012,08,23,00,02,11.70
2012,08,23,00,03,11.70
2012,08,23,00,04,11.70
2012,08,23,00,05,11.70
2012,08,23,00,06,11.70
2012,08,23,00,07,11.70
2012,08,23,00,08,11.70
2012,08,23,00,09,11.60
2012,08,23,00,10,11.60
2012,08,23,00,11,11.60
2012,08,23,00,12,11.60
2012,08,23,00,13,11.60
2012,08,23,00,14,11.50
2012,08,23,00,15,11.50
2012,08,23,00,16,11.50
2012,08,23,00,17,11.40
2012,08,23,00,18,11.40
2012,08,23,00,19,11.40
2012,08,23,00,20,11.40
2012,08,23,00,21,11.40
2012,08,23,00,22,11.40
2012,08,23,00,23,11.40
2012,08,23,00,24,11.30
2012,08,23,00,25,11.30
2012,08,23,00,26,11.30
2012,08,23,00,27,11.30
2012,08,23,00,28,11.30
2012,08,23,00,29,11.20
2012,08,23,00,30,11.20
2012,08,23,00,31,11.20
2012,08,23,00,32,11.20
2012,08,23,00,33,11.20
2012,08,23,00,34,11.20
2012,08,23,00,35,11.10
2012,08,23,00,36,11.10
2012,08,23,00,37,11.10
2012,08,23,00,38,11.10
2012,08,23,00,39,11.10
2012,08,23,00,40,11.10
2012,08,23,00,41,11.00
2012,08,23,00,42,11.00
2012,08,23,00,43,11.00
2012,08,23,00,44,11.00
2012,08,23,00,45,10.90
2012,08,23,00,46,10.90
2012,08,23,00,47,10.90
2012,08,23,00,48,10.90
2012,08,23,00,49,10.90
2012,08,23,00,50,10.80
2012,08,23,00,51,10.80
2012,08,23,00,52,10.80
2012,08,23,00,53,10.80
2012,08,23,00,54,10.80
2012,08,23,00,55,10.80
2012,08,23,00,56,10.80
2012,08,23,00,57,10.80
2012,08,23,00,58,10.80
2012,08,23,00,59,10.80
2012,08,23,01,00,10.70
2012,08,23,01,01,10.70
2012,08,23,01,02,10.70
2012,08,23,01,03,10.70
2012,08,23,01,04,10.70
2012,08,23,01,05,10.70
2012,08,23,01,06,10.70
2012,08,23,01,07,10.70
2012,08,23,01,08,10.60
2012,08,23,01,09,10.60
2012,08,23,01,10,10.60
2012,08,23,01,11,10.70
2012,08,23,01,12,10.70
2012,08,23,01,13,10.70
2012,08,23,01,14,10.70
2012,08,23,01,15,10.70
2012,08,23,01,16,10.70
2012,08,23,01,17,10.70
2012,08,23,01,18,10.70
2012,08,23,01,19,10.70
2012,08,23,01,20,10.70
2012,08,23,01,21,10.70
2012,08,23,01,22,10.70
2012,08,23,01,23,10.60
2012,08,23,01,24,10.60
2012,08,23,01,25,10.60
2012,08,23,01,26,10.60
2012,08,23,01,27,10.60
2012,08,23,01,28,10.50
2012,08,23,01,29,10.50
2012,08,23,01,30,10.50
2012,08,23,01,31,10.50
2012,08,23,01,32,10.50
2012,08,23,01,33,10.50
2012,08,23,01,34,10.50
2012,08,23,01,35,10.50
2012,08,23,01,36,10.50
2012,08,23,01,37,10.40
2012,08,23,01,38,10.40
2012,08,23,01,39,10.40
2012,08,23,01,40,10.40
2012,08,23,01,41,10.40
2012,08,23,01,42,10.40
2012,08,23,01,43,10.40
2012,08,23,01,44,10.30
2012,08,23,01,45,10.30
2012,08,23,01,46,10.30
2012,08,23,01,47,10.30
2012,08,23,01,48,10.30
2012,08,23,01,49,10.30
2012,08,23,01,50,10.30
2012,08,23,01,51,10.30
2012,08,23,01,52,10.30
2012,08,23,01,53,10.30
2012,08,23,01,54,10.40
2012,08,23,01,55,10.50
2012,08,23,01,56,10.50
2012,08,23,01,57,10.50
2012,08,23,01,58,10.60
2012,08,23,01,59,10.60
2012,08,23,02,00,10.60
2012,08,23,02,01,10.60
2012,08,23,02,02,10.60
2012,08,23,02,03,10.60
2012,08,23,02,04,10.60
2012,08,23,02,05,10.60
2012,08,23,02,06,10.50
2012,08,23,02,07,10.50
2012,08,23,02,08,10.50
2012,08,23,02,09,10.50
2012,08,23,02,10,10.50
2012,08,23,02,11,10.40
2012,08,23,02,12,10.40
2012,08,23,02,13,10.40
2012,08,23,02,14,10.40
2012,08,23,02,15,10.40
2012,08,23,02,16,10.40
2012,08,23,02,17,10.30
2012,08,23,02,18,10.30
2012,08,23,02,19,10.30
2012,08,23,02,20,10.30
2012,08,23,02,21,10.30
2012,08,23,02,22,10.30
2012,08,23,02,23,10.30
2012,08,23,02,24,10.30
2012,08,23,02,25,10.30
2012,08,23,02,26,10.30
2012,08,23,02,27,10.30
2012,08,23,02,28,10.30
2012,08,23,02,29,10.30
2012,08,23,02,30,10.30
2012,08,23,02,31,10.30
2012,08,23,02,32,10.30
2012,08,23,02,33,10.30
2012,08,23,02,34,10.30
2012,08,23,02,35,10.30
2012,08,23,02,36,10.30
2012,08,23,02,37,10.30
2012,08,23,02,38,10.20
2012,08,23,02,39,10.20
2012,08,23,02,40,10.20
2012,08,23,02,41,10.20
2012,08,23,02,42,10.20
2012,08,23,02,43,10.20
2012,08,23,02,44,10.30
2012,08,23,02,45,10.30
2012,08,23,02,46,10.30
2012,08,23,02,47,10.30
2012,08,23,02,48,10.30
2012,08,23,02,49,10.30
2012,08,23,02,50,10.40
2012,08,23,02,51,10.40
2012,08,23,02,52,10.40
2012,08,23,02,53,10.40
2012,08,23,02,54,10.40
2012,08,23,02,55,10.40
2012,08,23,02,56,10.40
2012,08,23,02,57,10.40
2012,08,23,02,58,10.40
2012,08,23,02,59,10.40
2012,08,23,03,00,10.40
2012,08,23,03,01,10.40
2012,08,23,03,02,10.40
2012,08,23,03,03,10.40
2012,08,23,03,04,10.30
2012,08,23,03,05,10.30
2012,08,23,03,06,10.30
2012,08,23,03,07,10.30
2012,08,23,03,08,10.30
2012,08,23,03,09,10.40
2012,08,23,03,10,10.40
2012,08,23,03,11,10.40
2012,08,23,03,12,10.50
2012,08,23,03,13,10.50
2012,08,23,03,14,10.50
2012,08,23,03,15,10.50
2012,08,23,03,16,10.50
2012,08,23,03,17,10.50
2012,08,23,03,18,10.40
2012,08,23,03,19,10.40
2012,08,23,03,20,10.40
2012,08,23,03,21,10.40
2012,08,23,03,22,10.40
2012,08,23,03,23,10.40
2012,08,23,03,24,10.30
2012,08,23,03,25,10.30
2012,08,23,03,26,10.30
2012,08,23,03,27,10.30
2012,08,23,03,28,10.30
2012,08,23,03,29,10.30
2012,08,23,03,30,10.30
2012,08,23,03,31,10.30
2012,08,23,03,32,10.30
2012,08,23,03,33,10.30
2012,08,23,03,34,10.30
2012,08,23,03,35,10.40
2012,08,23,03,36,10.40
2012,08,23,03,37,10.40
2012,08,23,03,38,10.50
2012,08,23,03,39,10.50
2012,08,23,03,40,10.50
2012,08,23,03,41,10.50
2012,08,23,03,42,10.60
2012,08,23,03,43,10.60
2012,08,23,03,44,10.70
2012,08,23,03,45,10.70
2012,08,23,03,46,10.70
2012,08,23,03,47,10.80
2012,08,23,03,48,10.80
2012,08,23,03,49,10.80
2012,08,23,03,50,10.90
2012,08,23,03,51,10.90
2012,08,23,03,52,10.90
2012,08,23,03,53,10.90
2012,08,23,03,54,10.90
2012,08,23,03,55,11.00
2012,08,23,03,56,11.00
2012,08,23,03,57,11.00
2012,08,23,03,58,11.00
2012,08,23,03,59,11.00
2012,08,23,04,00,11.00
2012,08,23,04,01,11.00
2012,08,23,04,02,11.00
2012,08,23,04,03,11.00
2012,08,23,04,04,11.00
2012,08,23,04,05,11.10
2012,08,23,04,06,11.10
2012,08,23,04,07,11.10
2012,08,23,04,08,11.10
2012,08,23,04,09,11.10
2012,08,23,04,10,11.10
2012,08,23,04,11,11.10
2012,08,23,04,12,11.10
2012,08,23,04,13,11.10
2012,08,23,04,14,11.10
2012,08,23,04,15,11.10
2012,08,23,04,16,11.10
2012,08,23,04,17,11.10
2012,08,23,04,18,11.20
2012,08,23,04,19,11.20
2012,08,23,04,20,11.30
2012,08,23,04,21,11.30
2012,08,23,04,22,11.30
2012,08,23,04,23,11.40
2012,08,23,04,24,11.40
2012,08,23,04,25,11.50
2012,08,23,04,26,11.60
2012,08,23,04,27,11.60
2012,08,23,04,28,11.70
2012,08,23,04,29,11.70
2012,08,23,04,30,11.80
2012,08,23,04,31,11.80
2012,08,23,04,32,11.90
2012,08,23,04,33,12.00
2012,08,23,04,34,12.00
2012,08,23,04,35,12.10
2012,08,23,04,36,12.20
2012,08,23,04,37,12.20
2012,08,23,04,38,12.30
2012,08,23,04,39,12.30
2012,08,23,04,40,12.30
2012,08,23,04,41,12.40
2012,08,23,04,42,12.40
2012,08,23,04,43,12.50
2012,08,23,04,44,12.60
2012,08,23,04,45,12.70
2012,08,23,04,46,12.70
2012,08,23,04,47,12.80
2012,08,23,04,48,12.80
2012,08,23,04,49,12.90
2012,08,23,04,50,12.90
2012,08,23,04,51,13.00
2012,08,23,04,52,13.10
2012,08,23,04,53,13.10
2012,08,23,04,54,13.20
2012,08,23,04,55,13.20
2012,08,23,04,56,13.20
2012,08,23,04,57,13.30
2012,08,23,04,58,13.30
2012,08,23,04,59,13.30
2012,08,23,05,00,13.30
2012,08,23,05,01,13.30
2012,08,23,05,02,13.30
2012,08,23,05,03,13.40
2012,08,23,05,04,13.40
2012,08,23,05,05,13.50
2012,08,23,05,06,13.50
2012,08,23,05,07,13.60
2012,08,23,05,08,13.60
2012,08,23,05,09,13.60
2012,08,23,05,10,13.60
2012,08,23,05,11,13.70
2012,08,23,05,12,13.70
2012,08,23,05,13,13.70
2012,08,23,05,14,13.70
2012,08,23,05,15,13.70
2012,08,23,05,16,13.80
2012,08,23,05,17,13.80
2012,08,23,05,18,13.80
2012,08,23,05,19,13.80
2012,08,23,05,20,13.80
2012,08,23,05,21,13.80
2012,08,23,05,22,13.80
2012,08,23,05,23,13.80
2012,08,23,05,24,13.90
2012,08,23,05,25,13.90
2012,08,23,05,26,13.90
2012,08,23,05,27,13.90
2012,08,23,05,28,13.90
2012,08,23,05,29,13.90
2012,08,23,05,30,13.90
2012,08,23,05,31,13.90
2012,08,23,05,32,13.90
2012,08,23,05,33,13.90
2012,08,23,05,34,13.90
2012,08,23,05,35,13.90
2012,08,23,05,36,14.00
2012,08,23,05,37,14.00
2012,08,23,05,38,14.00
2012,08,23,05,39,14.00
2012,08,23,05,40,13.90
2012,08,23,05,41,14.00
2012,08,23,05,42,13.90
2012,08,23,05,43,13.90
2012,08,23,05,44,13.90
2012,08,23,05,45,13.90
2012,08,23,05,46,13.90
2012,08,23,05,47,13.90
2012,08,23,05,48,13.90
2012,08,23,05,49,13.90
2012,08,23,05,50,13.90
2012,08,23,05,51,13.80
2012,08,23,05,52,13.80
2012,08,23,05,53,13.80
2012,08,23,05,54,13.80
2012,08,23,05,55,13.80
2012,08,23,05,56,13.70
2012,08,23,05,57,13.70
2012,08,23,05,58,13.70
2012,08,23,05,59,13.70
2012,08,23,06,00,13.60
2012,08,23,06,01,13.60
2012,08,23,06,02,13.60
2012,08,23,06,03,13.50
2012,08,23,06,04,13.50
2012,08,23,06,05,13.40
2012,08,23,06,06,13.40
2012,08,23,06,07,13.40
2012,08,23,06,08,13.30
2012,08,23,06,09,13.30
2012,08,23,06,10,13.30
2012,08,23,06,11,13.20
2012,08,23,06,12,13.20
2012,08,23,06,13,13.20
2012,08,23,06,14,13.20
2012,08,23,06,15,13.20
2012,08,23,06,16,13.20
2012,08,23,06,17,13.20
2012,08,23,06,18,13.20
2012,08,23,06,19,13.20
2012,08,23,06,20,13.20
2012,08,23,06,21,13.20
2012,08,23,06,22,13.20
2012,08,23,06,23,13.20
2012,08,23,06,24,13.20
2012,08,23,06,25,13.20
2012,08,23,06,26,13.20
2012,08,23,06,27,13.20
2012,08,23,06,28,13.20
2012,08,23,06,29,13.20
2012,08,23,06,30,13.20
2012,08,23,06,31,13.20
2012,08,23,06,32,13.20
2012,08,23,06,33,13.20
2012,08,23,06,34,13.20
2012,08,23,06,35,13.20
2012,08,23,06,36,13.20
2012,08,23,06,37,13.20
2012,08,23,06,38,13.20
2012,08,23,06,39,13.30
2012,08,23,06,40,13.30
2012,08,23,06,41,13.30
2012,08,23,06,42,13.30
2012,08,23,06,43,13.30
2012,08,23,06,44,13.30
2012,08,23,06,45,13.30
2012,08,23,06,46,13.30
2012,08,23,06,47,13.30
2012,08,23,06,48,13.30
2012,08,23,06,49,13.30
2012,08,23,06,50,13.30
2012,08,23,06,51,13.30
2012,08,23,06,52,13.30
2012,08,23,06,53,13.30
2012,08,23,06,54,13.30
2012,08,23,06,55,13.30
2012,08,23,06,56,13.40
2012,08,23,06,57,13.40
2012,08,23,06,58,13.40
2012,08,23,06,59,13.40
2012,08,23,07,00,13.40
2012,08,23,07,01,13.40
2012,08,23,07,02,13.40
2012,08,23,07,03,13.40
2012,08,23,07,04,13.40
2012,08,23,07,05,13.50
2012,08,23,07,06,13.50
2012,08,23,07,07,13.50
2012,08,23,07,08,13.50
2012,08,23,07,09,13.60
2012,08,23,07,10,13.60
2012,08,23,07,11,13.60
2012,08,23,07,12,13.60
2012,08,23,07,13,13.60
2012,08,23,07,14,13.70
2012,08,23,07,15,13.70
2012,08,23,07,16,13.70
2012,08,23,07,17,13.80
2012,08,23,07,18,13.80
2012,08,23,07,19,13.80
2012,08,23,07,20,13.80
2012,08,23,07,21,13.80
2012,08,23,07,22,13.90
2012,08,23,07,23,13.90
2012,08,23,07,24,13.90
2012,08,23,07,25,13.90
2012,08,23,07,26,13.90
2012,08,23,07,27,13.90
2012,08,23,07,28,13.90
2012,08,23,07,29,13.90
2012,08,23,07,30,13.90
2012,08,23,07,31,14.00
2012,08,23,07,32,14.00
2012,08,23,07,33,14.00
2012,08,23,07,34,14.00
2012,08,23,07,35,14.00
2012,08,23,07,36,14.10
2012,08,23,07,37,14.10
2012,08,23,07,38,14.10
2012,08,23,07,39,14.10
2012,08,23,07,40,14.10
2012,08,23,07,41,14.10
2012,08,23,07,42,14.00
2012,08,23,07,43,14.00
2012,08,23,07,44,14.00
2012,08,23,07,45,14.00
2012,08,23,07,46,14.00
2012,08,23,07,47,14.00
2012,08,23,07,48,14.00
2012,08,23,07,49,14.00
2012,08,23,07,50,14.00
2012,08,23,07,51,14.00
2012,08,23,07,52,14.10
2012,08,23,07,53,14.10
2012,08,23,07,54,14.10
2012,08,23,07,55,14.10
2012,08,23,07,56,14.10
2012,08,23,07,57,14.10
2012,08,23,07,58,14.10
2012,08,23,07,59,14.10
2012,08,23,08,00,14.10
2012,08,23,08,01,14.10
2012,08,23,08,02,14.10
2012,08,23,08,03,14.10
2012,08,23,08,04,14.10
2012,08,23,08,05,14.10
2012,08,23,08,06,14.10
2012,08,23,08,07,14.10
2012,08,23,08,08,14.10
2012,08,23,08,09,14.10
2012,08,23,08,10,14.10
2012,08,23,08,11,14.10
2012,08,23,08,12,14.10
2012,08,23,08,13,14.10
2012,08,23,08,14,14.10
2012,08,23,08,15,14.10
2012,08,23,08,16,14.10
2012,08,23,08,17,14.10
2012,08,23,08,18,14.20
2012,08,23,08,19,14.20
2012,08,23,08,20,14.20
2012,08,23,08,21,14.20
2012,08,23,08,22,14.20
2012,08,23,08,23,14.30
2012,08,23,08,24,14.30
2012,08,23,08,25,14.30
2012,08,23,08,26,14.30
2012,08,23,08,27,14.30
2012,08,23,08,28,14.30
2012,08,23,08,29,14.30
2012,08,23,08,30,14.30
2012,08,23,08,31,14.30
2012,08,23,08,32,14.30
2012,08,23,08,33,14.40
2012,08,23,08,34,14.40
2012,08,23,08,35,14.40
2012,08,23,08,36,14.40
2012,08,23,08,37,14.40
2012,08,23,08,38,14.40
2012,08,23,08,39,14.40
2012,08,23,08,40,14.40
2012,08,23,08,41,14.40
2012,08,23,08,42,14.40
2012,08,23,08,43,14.40
2012,08,23,08,44,14.40
2012,08,23,08,45,14.40
2012,08,23,08,46,14.40
2012,08,23,08,47,14.40
2012,08,23,08,48,14.40
2012,08,23,08,49,14.50
2012,08,23,08,50,14.50
2012,08,23,08,51,14.60
2012,08,23,08,52,14.60
2012,08,23,08,53,14.70
2012,08,23,08,54,14.70
2012,08,23,08,55,14.80
2012,08,23,08,56,14.80
2012,08,23,08,57,14.90
2012,08,23,08,58,14.90
2012,08,23,08,59,15.00
2012,08,23,09,00,15.00
2012,08,23,09,01,15.00
2012,08,23,09,02,15.10
2012,08,23,09,03,15.10
2012,08,23,09,04,15.20
2012,08,23,09,05,15.20
2012,08,23,09,06,15.30
2012,08,23,09,07,15.30
2012,08,23,09,08,15.40
2012,08,23,09,09,15.40
2012,08,23,09,10,15.50
2012,08,23,09,11,15.50
2012,08,23,09,12,15.60
2012,08,23,09,13,15.60
2012,08,23,09,14,15.60
2012,08,23,09,15,15.70
2012,08,23,09,16,15.70
2012,08,23,09,17,15.70
2012,08,23,09,18,15.70
2012,08,23,09,19,15.70
2012,08,23,09,20,15.80
2012,08,23,09,21,15.80
2012,08,23,09,22,15.80
2012,08,23,09,23,15.80
2012,08,23,09,24,15.80
2012,08,23,09,25,15.80
2012,08,23,09,26,15.80
2012,08,23,09,27,15.90
2012,08,23,09,28,15.90
2012,08,23,09,29,15.90
2012,08,23,09,30,15.90
2012,08,23,09,31,15.80
2012,08,23,09,32,15.80
2012,08,23,09,33,15.80
2012,08,23,09,34,15.80
2012,08,23,09,35,15.80
2012,08,23,09,36,15.80
2012,08,23,09,37,15.70
2012,08,23,09,38,15.70
2012,08,23,09,39,15.70
2012,08,23,09,40,15.70
2012,08,23,09,41,15.70
2012,08,23,09,42,15.70
2012,08,23,09,43,15.70
2012,08,23,09,44,15.70
2012,08,23,09,45,15.60
2012,08,23,09,46,15.70
2012,08,23,09,47,15.60
2012,08,23,09,48,15.60
2012,08,23,09,49,15.60
2012,08,23,09,50,15.70
2012,08,23,09,51,15.70
2012,08,23,09,52,15.70
2012,08,23,09,53,15.70
2012,08,23,09,54,15.70
2012,08,23,09,55,15.80
2012,08,23,09,56,15.80
2012,08,23,09,57,15.90
2012,08,23,09,58,15.90
2012,08,23,09,59,15.90
2012,08,23,10,00,16.00
2012,08,23,10,01,16.00
2012,08,23,10,02,16.10
2012,08,23,10,03,16.10
2012,08,23,10,04,16.10
2012,08,23,10,05,16.20
2012,08,23,10,06,16.20
2012,08,23,10,07,16.20
2012,08,23,10,08,16.10
2012,08,23,10,09,16.10
2012,08,23,10,10,16.10
2012,08,23,10,11,16.10
2012,08,23,10,12,16.10
2012,08,23,10,13,16.10
2012,08,23,10,14,16.10
2012,08,23,10,15,16.10
2012,08,23,10,16,16.10
2012,08,23,10,17,16.20
2012,08,23,10,18,16.20
2012,08,23,10,19,16.20
2012,08,23,10,20,16.30
2012,08,23,10,21,16.30
2012,08,23,10,22,16.30
2012,08,23,10,23,16.40
2012,08,23,10,24,16.40
2012,08,23,10,25,16.40
2012,08,23,10,26,16.40
2012,08,23,10,27,16.50
2012,08,23,10,28,16.60
2012,08,23,10,29,16.60
2012,08,23,10,30,16.70
2012,08,23,10,31,16.70
2012,08,23,10,32,16.80
2012,08,23,10,33,16.90
2012,08,23,10,34,16.90
2012,08,23,10,35,16.90
2012,08,23,10,36,16.90
2012,08,23,10,37,16.90
2012,08,23,10,38,17.00
2012,08,23,10,39,17.00
2012,08,23,10,40,16.90
2012,08,23,10,41,16.90
2012,08,23,10,42,16.80
2012,08,23,10,43,16.80
2012,08,23,10,44,16.70
2012,08,23,10,45,16.60
2012,08,23,10,46,16.60
2012,08,23,10,47,16.50
2012,08,23,10,48,16.40
2012,08,23,10,49,16.30
2012,08,23,10,50,16.20
2012,08,23,10,51,16.20
2012,08,23,10,52,16.20
2012,08,23,10,53,16.20
2012,08,23,10,54,16.20
2012,08,23,10,55,16.10
2012,08,23,10,56,16.10
2012,08,23,10,57,16.10
2012,08,23,10,58,16.10
2012,08,23,10,59,16.00
2012,08,23,11,00,16.00
2012,08,23,11,01,16.00
2012,08,23,11,02,16.00
2012,08,23,11,03,16.00
2012,08,23,11,04,16.00
2012,08,23,11,05,16.00
2012,08,23,11,06,16.00
2012,08,23,11,07,15.90
2012,08,23,11,08,15.90
2012,08,23,11,09,16.00
2012,08,23,11,10,16.00
2012,08,23,11,11,16.00
2012,08,23,11,12,16.00
2012,08,23,11,13,16.00
2012,08,23,11,14,16.00
2012,08,23,11,15,16.00
2012,08,23,11,16,16.00
2012,08,23,11,17,16.00
2012,08,23,11,18,16.00
2012,08,23,11,19,16.00
2012,08,23,11,20,16.10
2012,08,23,11,21,16.00
2012,08,23,11,22,16.00
2012,08,23,11,23,16.00
2012,08,23,11,24,16.00
2012,08,23,11,25,16.00
2012,08,23,11,26,16.00
2012,08,23,11,27,16.00
2012,08,23,11,28,16.00
2012,08,23,11,29,16.10
2012,08,23,11,30,16.10
2012,08,23,11,31,16.10
2012,08,23,11,32,16.10
2012,08,23,11,33,16.10
2012,08,23,11,34,16.20
2012,08,23,11,35,16.20
2012,08,23,11,36,16.20
2012,08,23,11,37,16.30
2012,08,23,11,38,16.30
2012,08,23,11,39,16.20
2012,08,23,11,40,16.30
2012,08,23,11,41,16.30
2012,08,23,11,42,16.30
2012,08,23,11,43,16.30
2012,08,23,11,44,16.40
2012,08,23,11,45,16.50
2012,08,23,11,46,16.50
2012,08,23,11,47,16.50
2012,08,23,11,48,16.60
2012,08,23,11,49,16.60
2012,08,23,11,50,16.50
2012,08,23,11,51,16.50
2012,08,23,11,52,16.40
2012,08,23,11,53,16.40
2012,08,23,11,54,16.40
2012,08,23,11,55,16.50
2012,08,23,11,56,16.50
2012,08,23,11,57,16.40
2012,08,23,11,58,16.40
2012,08,23,11,59,16.40
2012,08,23,12,00,16.40
2012,08,23,12,01,16.40
2012,08,23,12,02,16.40
2012,08,23,12,03,16.40
2012,08,23,12,04,16.40
2012,08,23,12,05,16.50
2012,08,23,12,06,16.60
2012,08,23,12,07,16.60
2012,08,23,12,08,16.60
2012,08,23,12,09,16.70
2012,08,23,12,10,16.80
2012,08,23,12,11,16.80
2012,08,23,12,12,16.90
2012,08,23,12,13,16.90
2012,08,23,12,14,16.90
2012,08,23,12,15,16.90
2012,08,23,12,16,16.90
2012,08,23,12,17,16.90
2012,08,23,12,18,16.90
2012,08,23,12,19,16.90
2012,08,23,12,20,16.90
2012,08,23,12,21,16.90
2012,08,23,12,22,16.80
2012,08,23,12,23,16.80
2012,08,23,12,24,16.80
2012,08,23,12,25,16.80
2012,08,23,12,26,16.80
2012,08,23,12,27,16.90
2012,08,23,12,28,16.90
2012,08,23,12,29,17.00
2012,08,23,12,30,17.00
2012,08,23,12,31,17.00
2012,08,23,12,32,17.00
2012,08,23,12,33,17.00
2012,08,23,12,34,16.90
2012,08,23,12,35,16.80
2012,08,23,12,36,16.80
2012,08,23,12,37,16.80
2012,08,23,12,38,16.80
2012,08,23,12,39,16.80
2012,08,23,12,40,16.80
2012,08,23,12,41,16.70
2012,08,23,12,42,16.70
2012,08,23,12,43,16.70
2012,08,23,12,44,16.70
2012,08,23,12,45,16.70
2012,08,23,12,46,16.70
2012,08,23,12,47,16.80
2012,08,23,12,48,16.80
2012,08,23,12,49,16.80
2012,08,23,12,50,16.80
2012,08,23,12,51,16.90
2012,08,23,12,52,17.00
2012,08,23,12,53,17.10
2012,08,23,12,54,17.20
2012,08,23,12,55,17.20
2012,08,23,12,56,17.30
2012,08,23,12,57,17.40
2012,08,23,12,58,17.50
2012,08,23,12,59,17.50
2012,08,23,13,00,17.50
2012,08,23,13,01,17.50
2012,08,23,13,02,17.50
2012,08,23,13,03,17.60
2012,08,23,13,04,17.50
2012,08,23,13,05,17.40
2012,08,23,13,06,17.40
2012,08,23,13,07,17.40
2012,08,23,13,08,17.40
2012,08,23,13,09,17.30
2012,08,23,13,10,17.30
2012,08,23,13,11,17.20
2012,08,23,13,12,17.10
2012,08,23,13,13,17.10
2012,08,23,13,14,17.00
2012,08,23,13,15,16.90
2012,08,23,13,16,16.90
2012,08,23,13,17,16.90
2012,08,23,13,18,16.80
2012,08,23,13,19,16.80
2012,08,23,13,20,16.80
2012,08,23,13,21,16.80
2012,08,23,13,22,16.80
2012,08,23,13,23,16.80
2012,08,23,13,24,16.80
2012,08,23,13,25,16.80
2012,08,23,13,26,16.90
2012,08,23,13,27,17.00
2012,08,23,13,28,17.00
2012,08,23,13,29,17.10
2012,08,23,13,30,17.20
2012,08,23,13,31,17.30
2012,08,23,13,32,17.40
2012,08,23,13,33,17.40
2012,08,23,13,34,17.40
2012,08,23,13,35,17.50
2012,08,23,13,36,17.60
2012,08,23,13,37,17.70
2012,08,23,13,38,17.70
2012,08,23,13,39,17.80
2012,08,23,13,40,17.80
2012,08,23,13,41,17.80
2012,08,23,13,42,17.70
2012,08,23,13,43,17.80
2012,08,23,13,44,17.80
2012,08,23,13,45,17.80
2012,08,23,13,46,17.80
2012,08,23,13,47,17.80
2012,08,23,13,48,17.80
2012,08,23,13,49,17.70
2012,08,23,13,50,17.70
2012,08,23,13,51,17.70
2012,08,23,13,52,17.60
2012,08,23,13,53,17.60
2012,08,23,13,54,17.60
2012,08,23,13,55,17.50
2012,08,23,13,56,17.50
2012,08,23,13,57,17.50
2012,08,23,13,58,17.50
2012,08,23,13,59,17.50
2012,08,23,14,00,17.60
2012,08,23,14,01,17.60
2012,08,23,14,02,17.60
2012,08,23,14,03,17.60
2012,08,23,14,04,17.70
2012,08,23,14,05,17.70
2012,08,23,14,06,17.70
2012,08,23,14,07,17.80
2012,08,23,14,08,17.80
2012,08,23,14,09,17.80
2012,08,23,14,10,17.80
2012,08,23,14,11,17.80
2012,08,23,14,12,17.80
2012,08,23,14,13,17.80
2012,08,23,14,14,17.80
2012,08,23,14,15,17.80
2012,08,23,14,16,17.80
2012,08,23,14,17,17.80
2012,08,23,14,18,17.80
2012,08,23,14,19,17.80
2012,08,23,14,20,17.80
2012,08,23,14,21,17.80
2012,08,23,14,22,17.80
2012,08,23,14,23,17.80
2012,08,23,14,24,17.80
2012,08,23,14,25,17.80
2012,08,23,14,26,17.80
2012,08,23,14,27,17.80
2012,08,23,14,28,17.70
2012,08,23,14,29,17.70
2012,08,23,14,30,17.70
2012,08,23,14,31,17.60
2012,08,23,14,32,17.60
2012,08,23,14,33,17.60
2012,08,23,14,34,17.60
2012,08,23,14,35,17.70
2012,08,23,14,36,17.70
2012,08,23,14,37,17.70
2012,08,23,14,38,17.70
2012,08,23,14,39,17.70
2012,08,23,14,40,17.60
2012,08,23,14,41,17.60
2012,08,23,14,42,17.60
2012,08,23,14,43,17.60
2012,08,23,14,44,17.50
2012,08,23,14,45,17.60
2012,08,23,14,46,17.60
2012,08,23,14,47,17.60
2012,08,23,14,48,17.60
2012,08,23,14,49,17.60
2012,08,23,14,50,17.70
2012,08,23,14,51,17.70
2012,08,23,14,52,17.70
2012,08,23,14,53,17.70
2012,08,23,14,54,17.70
2012,08,23,14,55,17.70
2012,08,23,14,56,17.80
2012,08,23,14,57,17.80
2012,08,23,14,58,17.80
2012,08,23,14,59,17.80
2012,08,23,15,00,17.80
2012,08,23,15,01,17.80
2012,08,23,15,02,17.90
2012,08,23,15,03,17.90
2012,08,23,15,04,17.90
2012,08,23,15,05,17.90
2012,08,23,15,06,17.90
2012,08,23,15,07,17.90
2012,08,23,15,08,18.00
2012,08,23,15,09,18.00
2012,08,23,15,10,18.10
2012,08,23,15,11,18.10
2012,08,23,15,12,18.10
2012,08,23,15,13,18.10
2012,08,23,15,14,18.20
2012,08,23,15,15,18.20
2012,08,23,15,16,18.20
2012,08,23,15,17,18.20
2012,08,23,15,18,18.20
2012,08,23,15,19,18.20
2012,08,23,15,20,18.20
2012,08,23,15,21,18.20
2012,08,23,15,22,18.20
2012,08,23,15,23,18.20
2012,08,23,15,24,18.20
2012,08,23,15,25,18.20
2012,08,23,15,26,18.20
2012,08,23,15,27,18.20
2012,08,23,15,28,18.20
2012,08,23,15,29,18.20
2012,08,23,15,30,18.20
2012,08,23,15,31,18.20
2012,08,23,15,32,18.20
2012,08,23,15,33,18.20
2012,08,23,15,34,18.20
2012,08,23,15,35,18.20
2012,08,23,15,36,18.10
2012,08,23,15,37,18.00
2012,08,23,15,38,18.00
2012,08,23,15,39,17.90
2012,08,23,15,40,17.90
2012,08,23,15,41,17.80
2012,08,23,15,42,17.80
2012,08,23,15,43,17.80
2012,08,23,15,44,17.80
2012,08,23,15,45,17.90
2012,08,23,15,46,17.90
2012,08,23,15,47,17.90
2012,08,23,15,48,17.90
2012,08,23,15,49,18.00
2012,08,23,15,50,18.10
2012,08,23,15,51,18.20
2012,08,23,15,52,18.30
2012,08,23,15,53,18.30
2012,08,23,15,54,18.30
2012,08,23,15,55,18.20
2012,08,23,15,56,18.20
2012,08,23,15,57,18.20
2012,08,23,15,58,18.30
2012,08,23,15,59,18.30
2012,08,23,16,00,18.30
2012,08,23,16,01,18.30
2012,08,23,16,02,18.30
2012,08,23,16,03,18.40
2012,08,23,16,04,18.50
2012,08,23,16,05,18.60
2012,08,23,16,06,18.60
2012,08,23,16,07,18.60
2012,08,23,16,08,18.70
2012,08,23,16,09,18.70
2012,08,23,16,10,18.70
2012,08,23,16,11,18.70
2012,08,23,16,12,18.80
2012,08,23,16,13,18.80
2012,08,23,16,14,18.80
2012,08,23,16,15,18.80
2012,08,23,16,16,18.80
2012,08,23,16,17,18.90
2012,08,23,16,18,18.90
2012,08,23,16,19,18.80
2012,08,23,16,20,18.80
2012,08,23,16,21,18.80
2012,08,23,16,22,18.80
2012,08,23,16,23,18.80
2012,08,23,16,24,18.90
2012,08,23,16,25,18.90
2012,08,23,16,26,18.80
2012,08,23,16,27,18.80
2012,08,23,16,28,18.80
2012,08,23,16,29,18.80
2012,08,23,16,30,18.90
2012,08,23,16,31,18.90
2012,08,23,16,32,18.90
2012,08,23,16,33,18.80
2012,08,23,16,34,18.80
2012,08,23,16,35,18.80
2012,08,23,16,36,18.80
2012,08,23,16,37,18.80
2012,08,23,16,38,18.80
2012,08,23,16,39,18.70
2012,08,23,16,40,18.60
2012,08,23,16,41,18.60
2012,08,23,16,42,18.60
2012,08,23,16,43,18.60
2012,08,23,16,44,18.60
2012,08,23,16,45,18.60
2012,08,23,16,46,18.60
2012,08,23,16,47,18.50
2012,08,23,16,48,18.40
2012,08,23,16,49,18.30
2012,08,23,16,50,18.20
2012,08,23,16,51,18.10
2012,08,23,16,52,18.10
2012,08,23,16,53,18.00
2012,08,23,16,54,18.00
2012,08,23,16,55,18.00
2012,08,23,16,56,18.00
2012,08,23,16,57,17.90
2012,08,23,16,58,17.90
2012,08,23,16,59,17.90
2012,08,23,17,00,18.00
2012,08,23,17,01,18.00
2012,08,23,17,02,18.00
2012,08,23,17,03,18.00
2012,08,23,17,04,17.90
2012,08,23,17,05,17.90
2012,08,23,17,06,17.90
2012,08,23,17,07,17.80
2012,08,23,17,08,17.80
2012,08,23,17,09,17.80
2012,08,23,17,10,17.70
2012,08,23,17,11,17.70
2012,08,23,17,12,17.60
2012,08,23,17,13,17.60
2012,08,23,17,14,17.60
2012,08,23,17,15,17.60
2012,08,23,17,16,17.60
2012,08,23,17,17,17.60
2012,08,23,17,18,17.60
2012,08,23,17,19,17.60